STARLINK-32265, 60415

Orbit data source: Space-Track

STARLINK-32265, 60415 is a payload satellite owned by SpaceX/Seattle (US) in LEO that was launched on Sat, 10 Aug 2024 UTC via an FALCON 9 launch vehicle from the Air Force Eastern Test Range (AFETR). Payload-class satellites include a variety of spacecraft equipped with specific instruments for various scientific and technological missions. These include communications satellites like Starlink; space stations such as the ISS; scientific satellites like the Hubble; Earth observation satellites from companies like Planet Labs, Umbra, and HawkEye 360; GPS; miniature CubeSats for education and research; and military/defense satellites.

Loading next visibility...
Identifier
60415, 2024-141T
Orbit
LEO
Country
Flag of USUS
Related business
Manufacturer
SpaceX/Seattle
Mission
Operational Commercial Communications
Bus & Motor
STARLINK V2M, Unknown motor
Mass
730 kg wet, ~700 kg dry
Launch date (UTC)
2024-08-10 (1 year ago)
Launch vehicle
FALCON 9
Launch site
Air Force Eastern Test Range (AFETR)
Object type
Payload
Rocket body
Debris
Shape & HBR
Box + 2 Pan, 14.5 m
Radar Cross Section
36.964 m², Large (>1 m²)

Expand to show TLE details & history
Last TLE update: 22 hours ago

TLE from 22 hours ago
0 STARLINK-32265
1 60415U 24141T   25260.17777152 -.00002596  00000-0 -75602-4 0  9998
2 60415  53.1612 328.6400 0001259 110.0883 250.0253 15.30173373 63017
Epoch: 2025-09-17T04:15Z
TLE epoch observation values (Epoch: 2025-09-17T04:15:59.459Z)
Latitude
-0.00004°
Longitude
-91.71523°
Altitude
476.489 km
Speed
7.629 km/s
True Right ascension
21h 54m 33s
True Declination
0° 00' 00"
Sunlit
Object was in full shadow at epoch
Visualization orbit readout
Latitude
Unknown
Longitude
Unknown
Altitude
Unknown
Speed
Unknown
Apparent Right ascension
Unknown
Apparent Declination
Unknown
Sunlit
N/A
Visualization observer readout
Local Sidereal Time
19:12:46
Azimuth
Unknown
Elevation
Unknown
Doppler factor
Unknown
Orbital elements
Apogee altitude
476.414 km
Perigee altitude
474.688 km
Semi-major axis
6,853.688 km
Eccentricity
0.00013
Inclination
53.1612°
RAAN
328.64°
Arg. of periapsis
110.0883°
True anomaly
250.01174°
Mean anomaly
250.0253°
Eccentric anomaly
250.01852°
Mean motion
3.82522 °/min
Orbital period
94.11 mins
BSTAR
-0.000075602
Loading maneuver chart data...
Computing Atmospheric mass density...
Loading historical data...
Loading historical data...
Loading historical data...
Loading historical data...
Loading historical data...
Loading historical data...
Loading historical data...

Documentation

Showing up to 5 results
|